User: anonymous   Login
Location: Unspecified
(0.0000°N, 0.0000°E)
Time: 12:35:50
(UTC+00:00)
Language:

SWAS - Orbit

View from above orbital plane
View from above orbital plane
View from above satellite
View from above satellite

Ground track
Ground track

The orbit data is extracted from the following two-line orbital elements,

1 25560U 98071A   18200.81512478  .00000094  00000-0  17514-4 0  9995
2 25560  69.8996 341.0835 0010451 300.9635  59.0493 14.93610684 64910
Epoch (UTC): 19 July 2018 19:33:46
Eccentricity: 0.0010451
inclination: 69.8996°
perigee height: 579 km
apogee height: 594 km
right ascension of ascending node: 341.0835°
argument of perigee: 300.9635°
revolutions per day: 14.93610684
mean anomaly at epoch: 59.0493°
orbit number at epoch: 6491

The dashed part of the orbit path shows where the satellite is in the earth's shadow,  

DLR